Date String (YYYY-MM-DD hh:mm:ss) UTC,Instrument flags,absolute air pressure of the measurement (hPa),sample flow rate (lpm),inlet stack bypass flow (lpm),air temperature of the measurement (°C),ambient temperature measured by the external sensor (°C),aerosol sample conditioner tube jacket temperature (°C),OPC LED temperature (°C),internal box temperature (°C),relative humidity of the measurement (%),span deviation,mass concentration of particles derived from Lorenz-Mie calculation of OPC scattering (μg/m³),mass concentration of particles derived from Lorenz-Mie calculation of OPC scattering (μg/m³),mass concentration of particles derived from Lorenz-Mie calculation of OPC scattering (μg/m³)
DateTimeUTC,F1_M11,P_M11,Q1_M11,Q2_M11,T1_M11,T2_M11,T3_M11,T4_M11,T5_M11,U1_M11,ZSPAN_M11,X2_M11,X0_M11,X1_M11
2023-11-20 03:00:00,SystemResetWarning,0822.4,5.00,000.00,025.4,024.2,000.0,033.8,026.7,17.4,0000.0,0001.21,0001.79,0001.01
2023-11-20 03:01:00,SystemResetWarning,0822.4,5.00,000.00,025.4,024.3,000.0,033.8,026.8,17.4,0000.0,0001.21,0001.80,0001.01
2023-11-20 03:02:00,SystemResetWarning,0822.6,5.00,000.00,025.4,024.3,000.0,033.8,026.8,17.4,0000.0,0001.21,0001.79,0001.01
2023-11-20 03:03:00,SystemResetWarning,0822.5,5.01,000.00,025.4,024.4,000.0,033.8,026.8,17.4,0000.0,0001.18,0001.73,0001.00
2023-11-20 03:04:00,SystemResetWarning,0823.0,5.00,000.00,025.4,024.4,000.0,033.8,026.8,17.3,0000.0,0001.15,0001.66,0000.98
2023-11-20 03:05:00,SystemResetWarning,0823.0,5.00,000.00,025.5,024.5,000.0,033.8,026.9,16.9,0000.0,0001.16,0001.65,0000.98
2023-11-20 03:06:00,SystemResetWarning,0823.0,5.00,000.00,025.5,024.5,000.0,033.8,026.9,17.0,0000.0,0001.16,0001.64,0000.97
2023-11-20 03:07:00,SystemResetWarning,0822.7,5.00,000.00,025.5,024.5,000.0,033.8,026.9,17.0,0000.0,0001.18,0001.65,0000.97
2023-11-20 03:08:00,SystemResetWarning,0822.6,5.00,000.00,025.5,024.6,000.0,033.8,026.9,17.1,0000.0,0001.16,0001.60,0000.97
2023-11-20 03:09:00,SystemResetWarning,0822.7,4.99,000.00,025.5,024.6,000.0,033.8,026.9,17.1,0000.0,0001.15,0001.55,0000.98
2023-11-20 03:10:00,SystemResetWarning,0822.8,4.99,000.00,025.6,024.6,000.0,033.8,026.9,17.1,0000.0,0001.14,0001.45,0000.98
2023-11-20 03:11:00,SystemResetWarning,0822.6,5.00,000.00,025.6,024.7,000.0,033.8,027.0,17.2,0000.0,0001.11,0001.39,0000.97
2023-11-20 03:12:00,SystemResetWarning,0822.7,5.00,000.00,025.6,024.7,000.0,033.9,027.0,17.2,0000.0,0001.10,0001.37,0000.96
2023-11-20 03:13:00,SystemResetWarning,0822.8,5.00,000.00,025.6,024.7,000.0,033.9,027.0,17.2,0000.0,0001.10,0001.41,0000.96
2023-11-20 03:14:00,SystemResetWarning,0822.8,5.00,000.00,025.6,024.7,000.0,033.9,027.0,17.2,0000.0,0001.11,0001.45,0000.96
2023-11-20 03:15:00,SystemResetWarning,0823.1,5.01,000.00,025.6,024.7,000.0,033.9,027.0,17.2,0000.0,0001.14,0001.56,0000.96
2023-11-20 03:16:00,SystemResetWarning,0822.9,5.00,000.00,025.6,024.7,000.0,033.9,027.0,17.1,0000.0,0001.18,0002.64,0000.96
2023-11-20 03:17:00,SystemResetWarning,0822.7,5.00,000.00,025.6,024.7,000.0,033.9,027.0,16.8,0000.0,0001.19,0003.26,0000.95
2023-11-20 03:18:00,SystemResetWarning,0822.7,5.00,000.00,025.6,024.7,000.0,033.9,027.0,16.8,0000.0,0001.20,0003.47,0000.97
2023-11-20 03:19:00,SystemResetWarning,0822.8,5.00,000.00,025.7,024.7,000.0,033.9,027.0,16.6,0000.0,0001.24,0003.55,0000.98
2023-11-20 03:20:00,SystemResetWarning,0822.8,5.00,000.00,025.7,024.7,000.0,033.9,027.0,16.7,0000.0,0001.28,0003.64,0001.00
2023-11-20 03:21:00,SystemResetWarning,0822.7,4.99,000.00,025.7,024.7,000.0,033.9,027.0,16.7,0000.0,0001.31,0003.67,0001.02
2023-11-20 03:22:00,SystemResetWarning,0822.7,4.99,000.00,025.7,024.7,000.0,033.9,027.0,16.7,0000.0,0001.37,0003.88,0001.06
2023-11-20 03:23:00,SystemResetWarning,0822.7,5.00,000.00,025.7,024.7,000.0,033.9,027.0,16.7,0000.0,0001.43,0004.51,0001.10
2023-11-20 03:24:00,SystemResetWarning,0822.7,5.00,000.00,025.7,024.7,000.0,033.9,027.0,16.8,0000.0,0001.47,0005.11,0001.14
2023-11-20 03:25:00,SystemResetWarning,0822.7,5.01,000.00,025.7,024.7,000.0,033.9,027.0,16.7,0000.0,0001.52,0005.19,0001.19
2023-11-20 03:26:00,SystemResetWarning,0822.7,5.01,000.00,025.7,024.7,000.0,034.0,027.0,16.4,0000.0,0001.57,0005.34,0001.24
2023-11-20 03:27:00,SystemResetWarning,0822.8,5.00,000.00,025.7,024.7,000.0,034.0,027.0,16.7,0000.0,0001.62,0004.64,0001.31
2023-11-20 03:28:00,SystemResetWarning,0822.8,5.01,000.00,025.7,024.8,000.0,034.0,027.0,16.7,0000.0,0001.70,0004.23,0001.37
2023-11-20 03:29:00,SystemResetWarning,0822.8,5.00,000.00,025.7,024.8,000.0,034.0,027.0,16.7,0000.0,0001.78,0004.28,0001.42
2023-11-20 03:30:00,SystemResetWarning,0822.8,4.99,000.00,025.7,024.8,000.0,034.0,027.0,16.7,0000.0,0001.82,0004.35,0001.46
2023-11-20 03:31:00,SystemResetWarning,0822.8,4.99,000.00,025.7,024.8,000.0,034.0,027.1,16.6,0000.0,0001.86,0005.23,0001.49
2023-11-20 03:32:00,SystemResetWarning,0822.8,4.99,000.00,025.7,024.8,000.0,034.0,027.1,16.6,0000.0,0001.87,0005.87,0001.49
2023-11-20 03:33:00,SystemResetWarning,0822.8,5.00,000.00,025.7,024.8,000.0,034.0,027.0,16.6,0000.0,0001.87,0005.74,0001.50
2023-11-20 03:34:00,SystemResetWarning,0822.8,5.00,000.00,025.7,024.8,000.0,034.0,027.0,16.6,0000.0,0001.88,0005.69,0001.53
2023-11-20 03:35:00,SystemResetWarning,0822.8,5.00,000.00,025.7,024.8,000.0,034.0,027.0,16.6,0000.0,0001.89,0004.95,0001.54
2023-11-20 03:36:00,SystemResetWarning,0822.8,5.00,000.00,025.7,024.8,000.0,034.0,027.0,16.6,0000.0,0001.90,0004.96,0001.54
2023-11-20 03:37:00,SystemResetWarning,0823.3,5.00,000.00,025.7,024.8,000.0,034.0,027.1,16.6,0000.0,0001.89,0004.86,0001.54
2023-11-20 03:38:00,SystemResetWarning,0823.1,5.00,000.00,025.7,024.8,000.0,034.0,027.1,16.6,0000.0,0001.87,0004.60,0001.53
2023-11-20 03:39:00,SystemResetWarning,0822.8,4.99,000.00,025.7,024.8,000.0,034.0,027.0,16.5,0000.0,0001.82,0004.50,0001.51
2023-11-20 03:40:00,SystemResetWarning,0822.8,5.00,000.00,025.7,024.8,000.0,034.0,027.1,16.5,0000.0,0001.73,0004.20,0001.49
2023-11-20 03:41:00,SystemResetWarning,0822.8,5.00,000.00,025.7,024.8,000.0,034.0,027.1,16.5,0000.0,0001.67,0004.04,0001.47
2023-11-20 03:42:00,SystemResetWarning,0822.9,5.01,000.00,025.7,024.8,000.0,034.0,027.1,16.5,0000.0,0001.63,0003.22,0001.47
2023-11-20 03:43:00,SystemResetWarning,0822.8,5.00,000.00,025.7,024.8,000.0,034.0,027.1,16.4,0000.0,0001.65,0002.61,0001.48
2023-11-20 03:44:00,SystemResetWarning,0823.0,5.01,000.00,025.7,024.8,000.0,034.0,027.1,16.4,0000.0,0001.67,0002.64,0001.49
2023-11-20 03:45:00,SystemResetWarning,0823.1,5.00,000.00,025.7,024.8,000.0,034.0,027.1,16.4,0000.0,0001.67,0002.39,0001.49
2023-11-20 03:46:00,SystemResetWarning,0823.0,5.00,000.00,025.7,024.8,000.0,034.0,027.1,16.3,0000.0,0001.67,0002.46,0001.48
2023-11-20 03:47:00,SystemResetWarning,0822.9,4.99,000.00,025.7,024.9,000.0,034.0,027.1,16.2,0000.0,0001.68,0002.51,0001.47
2023-11-20 03:48:00,SystemResetWarning,0823.0,5.00,000.00,025.7,024.8,000.0,034.0,027.1,16.2,0000.0,0001.68,0002.54,0001.47
2023-11-20 03:49:00,SystemResetWarning,0822.9,5.00,000.00,025.8,024.8,000.0,034.1,027.1,16.2,0000.0,0001.67,0002.57,0001.46
2023-11-20 03:50:00,SystemResetWarning,0822.9,5.00,000.00,025.8,024.8,000.0,034.1,027.1,16.1,0000.0,0001.66,0002.64,0001.46
2023-11-20 03:51:00,SystemResetWarning,0823.0,5.00,000.00,025.8,024.9,000.0,034.1,027.1,16.2,0000.0,0001.67,0002.67,0001.45
2023-11-20 03:52:00,SystemResetWarning,0823.0,5.01,000.00,025.8,024.9,000.0,034.1,027.1,16.1,0000.0,0001.69,0002.71,0001.46
2023-11-20 03:53:00,SystemResetWarning,0822.9,5.01,000.00,025.8,024.9,000.0,034.1,027.1,16.1,0000.0,0001.69,0002.75,0001.45
2023-11-20 03:54:00,SystemResetWarning,0823.1,5.01,000.00,025.8,024.9,000.0,034.1,027.1,16.0,0000.0,0001.67,0002.72,0001.44
2023-11-20 03:55:00,SystemResetWarning,0823.1,5.00,000.00,025.8,024.9,000.0,034.1,027.1,16.0,0000.0,0001.65,0002.66,0001.43
2023-11-20 03:56:00,SystemResetWarning,0823.0,5.00,000.00,025.8,024.9,000.0,034.1,027.1,16.0,0000.0,0001.64,0002.69,0001.42
2023-11-20 03:57:00,SystemResetWarning,0823.0,5.00,000.00,025.8,024.9,000.0,034.1,027.1,16.0,0000.0,0001.65,0002.70,0001.41
2023-11-20 03:58:00,SystemResetWarning,0822.9,5.00,000.00,025.8,024.9,000.0,034.1,027.1,16.0,0000.0,0001.62,0002.57,0001.40
2023-11-20 03:59:00,SystemResetWarning,0822.9,5.00,000.00,025.8,024.9,000.0,034.1,027.1,16.0,0000.0,0001.60,0002.86,0001.40
